LFBTLEPP

Guest
Details From LFBT - Tarbes Ossun Lourdes
To LEPP - Pamplona
Flight Number -
Tags generated
Created
Modified
Stats Distance 76 nm / 141 km
Max Altitude 6,800 ft / 2,073 m
Waypoints 3
Social Downloads 1
Likes 0
Share VATSIM

Download

Looking for another format? Having issues loading an existing format? Contact us
Advertisement - Login to hide

Notes

Basic altitude profile: - Ascent Rate: 2500ft/min - Ascent Speed: 250kts - Cruise Altitude: 35000ft - Cruise Speed: 420kts - Descent Rate: 1500ft/min - Descent Speed: 250kts

Route

LFBT LURAN LEPP

ID Type Via Altitude Latitude Longitude Leg Dist Tot Dist Heading (true) Name
O LFBT APT - 0 ft / 0 m 43.17864˚ -0.00634˚ - 0 nm - Tarbes Ossun Lourdes
LURAN FIX - 6,800 ft / 2,073 m 42.97276˚ -0.97922˚ 44 nm 44 nm 254° / 254° -
O LEPP APT - 0 ft / 0 m 42.77083˚ -1.64688˚ 31 nm 76 nm 248° / 247° Pamplona

Altitude Profile

Advertisement - Login to hide

LFBT

Details ICAO LFBT (LDE)
Name Tarbes Ossun Lourdes
Region France
Timezone Europe/Paris (UTC+2.0)
Stats Elevation 1,260 ft / 384 m (AMSL)
Location 43.178643° -0.006340°
Runways 1
Magnetic Variation 0.270° E

METAR

LFBT 211100Z AUTO VRB04KT 9999 FEW100 23/11 Q1011 TEMPO 4000 SHRA BKN035TCU FEW040CB

Decode

TAF

TAF LFBT 210500Z 2106/2206 VRB03KT 9999 BKN080 TEMPO 2110/2121 4000 SHRA BKN035TCU FEW040CB PROB40 TEMPO 2113/2120 TSRA BKN045CB TEMPO 2201/2206 SHRA BKN050

Decode

Departure Runways

ID Width Length Bearing (true) Bearing (mag) Surface Threshold Offset Overrun Length
02 148 ft / 45 m 9,847 ft / 3,001 m 20.26° 19.99° Asphalt 2,199 ft / 670 m 0 ft / 0 m
20 148 ft / 45 m 9,847 ft / 3,001 m 200.27° 200.00° Asphalt 0 ft / 0 m 0 ft / 0 m

LEPP

Details ICAO LEPP (PNA)
Name Pamplona
Region Spain
Timezone Europe/Madrid (UTC+2.0)
Stats Elevation 1,503 ft / 458 m (AMSL)
Location 42.770831° -1.646876°
Runways 2
Magnetic Variation 0.174° W

METAR

LEPP 211100Z 36003KT 260V060 9999 FEW035TCU 20/12 Q1012

Decode

TAF

TAF AMD TAF AMD LEPP 211031Z 2110/2209 18007KT 9999 SCT035 TX24/2114Z TN09/2207Z TEMPO 2110/2111 SCT035TCU TEMPO 2111/2124 SHRA SCT030TCU PROB40 TEMPO 2112/2121 VRB15G30KT 3000 TSGR SCT030CB PROB30 TEMPO 2200/2207 1500 BCFG

Decode

Destination Runways

ID Width Length Bearing (true) Bearing (mag) Surface Threshold Offset Overrun Length
15 148 ft / 45 m 7,192 ft / 2,192 m 151.64° 151.81° Asphalt 0 ft / 0 m 0 ft / 0 m
16 148 ft / 45 m 7,245 ft / 2,208 m 151.86° 152.03° Asphalt 0 ft / 0 m 0 ft / 0 m
33 148 ft / 45 m 7,192 ft / 2,192 m 331.65° 331.82° Asphalt 984 ft / 300 m 656 ft / 200 m
34 148 ft / 45 m 7,245 ft / 2,208 m 331.86° 332.03° Asphalt 984 ft / 300 m 0 ft / 0 m

Approach Navaids

Runway Type Ident Frequency Range Bearing (true) Bearing (mag) Slope Elevation
16 Localiser IPN 109.70 MHz 18 nm / 33 km 151.86° 152.03° - 1,503 ft / 458 m (AMSL)
16 Glidescope IPN 109.70 MHz 10 nm / 19 km 151.86° 152.03° 3.40° 1,503 ft / 458 m (AMSL)
16 DME IPN 109.70 MHz 18 nm / 33 km - - - 1,470 ft / 448 m (AMSL)

Popular Alternatives